Location: Shandelee
(41.8790°N, 74.8713°W)
Time: 03:37:48
(UTC+00:00)

Meteor 2-21 Rocket - Pass Details

Date: 29 October 2020
Orbit: 935 x 968 km, 82.5° (Epoch: 23 November)

Event Time Altitude Azimuth Distance (km) Brightness Sun altitude
Rises 22:27:19 0° 352° (N) 3,651 7.5 -6.3°
Reaches altitude 10° 22:29:50 10° 353° (N) 2,697 6.8 -6.8°
Maximum altitude 22:36:02 84° 82° (E) 961 4.5 -7.9°
Drops below altitude 10° 22:42:07 10° 171° (S) 2,656 6.8 -9.0°
Sets 22:44:35 0° 172° (S) 3,592 7.5 -9.5°
